sat.trackr.live / text

‹ back to catalog

ONEWEB-0406

NORAD 50486 · 2021-132T

PAYLOAD ACTIVE UNKNOWN

§ Identity

Operator
Country
UK
Launch date
2021-12-27
Launch site
TYMSC
Launch vehicle
Mass (kg)
RCS (m²)

Purposes: comms

External: N2YO · Heavens-Above · Gunter

§ Orbital elements

Epoch: 2026-09-19T23:15:25.551936Z

Period
109.20 min
Inclination
87.9162°
Eccentricity
0.0002230
Mean motion
13.18686648 rev/d
Perigee alt
1,188.1 km
Apogee alt
1,191.4 km
Semi-major
7,567.9 km
B*
-1.4419e-4
RAAN
316.6245°
Arg perigee
109.9575°
Mean anomaly
250.1798°
Rev number
23,411

§ Raw data

ONEWEB-04061 50486U 21132T   26262.96904574 -.00000044  00000+0 -14419-3 0  99952 50486  87.9162 316.6245 0002230 109.9575 250.1798 13.18686648234112

JSON: /api/v1/satellites/50486 · /tle

For live sub-satellite position, see the globe view (requires WebGL).

§ Visibility from observer

Set your observer location to see the next 7 days of passes ≥ 10°. The values pass through the URL so the page stays shareable.

No JS? Fill the form by hand. The geolocation button needs JavaScript.